[[{"header":{"parameterUnit":"m.s-1","parameterCategory":1,"la1":30.2991,"la2":30.254,"lo1":-89.0895,"lo2":-89.0444,"dy":0.0017,"dx":0.0017,"nx":28,"ny":28,"refTime":"2025-03-11T09:00:00:Z","depth":0,"parameterNumber":2,"parameterNumberName":"U-component_of_WINDS"},"data":[0,0,0,0,0,0,0,0,0,0,0,0,0,0,0,0,0,0,0,0,0,0,0,0,0,0,0,0,0,0,0,0,0,0,0,0,0,0,0,0,0,0,0,0,0,0,0,0,0,0,0,0,0,0,0,0,0,0,4.3212,4.3214,0,4.3431,4.3433,4.3436,4.342,4.3417,4.3413,4.341,4.3638,4.3647,4.3656,0,0,0,0,0,0,0,0,0,0,0,0,0,4.2782,4.279,4.3212,4.3214,4.3217,4.343,4.3433,4.3436,4.342,4.3416,4.3413,4.3409,4.3635,4.3646,4.3657,0,0,0,0,0,0,0,0,0,0,0,0,0,4.2982,4.2793,4.3211,4.3235,4.3239,4.343,4.3433,4.3437,4.3421,4.3416,4.3411,4.3407,4.3631,4.3645,4.3658,4.384,0,0,4.37,4.3706,0,0,0,0,0,0,0,0,4.2971,4.2998,4.3229,4.3234,4.3239,4.3393,4.3365,4.3572,4.3423,4.3352,4.341,4.3405,4.3561,4.358,4.3632,4.3851,4.3861,4.3701,4.3709,4.3715,4.3719,0,0,0,0,0,0,0,4.2957,4.2988,4.3298,4.3232,4.3238,4.3235,4.3258,4.3405,4.3481,4.3358,4.3357,4.3383,4.3562,4.3619,4.3637,4.3864,4.3701,4.3713,4.3721,4.3727,4.4242,4.4247,0,0,0,0,0,0,4.2937,4.2977,4.3291,4.3305,4.309,4.3247,4.3273,4.3348,4.348,4.3495,4.3387,4.3382,4.3598,4.3621,4.3645,4.3865,4.3715,4.3728,4.3736,4.4236,4.4243,4.4249,0,0,0,0,0,0,4.2928,4.2966,4.3283,4.3141,4.3181,4.326,4.3345,4.3355,4.3411,4.3502,4.3516,4.343,4.3595,4.3626,4.3791,4.3872,4.3734,4.3746,4.423,4.4238,4.4246,4.4307,0,0,0,0,0,0,4.2916,4.2962,4.3032,4.3143,4.3189,4.3425,4.335,4.3363,4.3434,4.3429,4.3546,4.356,4.3593,4.3771,4.3805,4.3889,4.3757,4.4223,4.4234,4.4243,4.4298,4.4316,4.4332,0,0,0,0,0,4.2901,4.3042,4.3035,4.3073,4.3277,4.3429,4.3456,4.349,4.3441,4.3512,4.357,4.3557,4.3858,4.3788,4.3826,4.3915,4.4218,4.4231,4.4243,4.429,4.4312,4.4331,0,0,0,0,0,0,4.294,4.3056,4.3051,4.3232,4.3321,4.3426,4.3516,4.3513,4.3618,4.3609,4.3648,4.3674,4.384,4.3895,4.3814,4.4097,4.4032,4.4052,4.4055,4.4077,4.4093,4.4076,4.3768,0,0,0,0,0,4.2969,4.3082,4.3179,4.3329,4.3374,4.3437,4.3505,4.3523,4.3617,4.3655,4.3725,4.3818,4.3933,4.4009,4.412,4.4306,4.433,4.4387,4.4403,4.4417,4.4433,4.4534,4.4559,4.429,4.4289,4.4289,0,0,4.3032,4.3109,4.3179,4.3339,4.341,4.3526,4.3469,4.3595,4.3682,4.3675,4.3834,4.3889,4.3995,4.4171,4.4252,4.4222,4.4514,4.4433,4.4443,4.4452,4.4549,4.4574,4.4597,4.4298,4.4296,4.4295,0,0,4.3204,4.3275,4.3406,4.3478,4.3586,4.3627,4.3659,4.3766,4.3801,4.3961,4.3958,4.4062,4.4261,4.4336,4.44,4.46,4.4591,4.4635,4.4723,4.482,4.4841,4.486,4.4929,4.4953,4.4652,4.4652,4.4652,0,4.3268,4.3442,4.3475,4.3601,4.3671,4.3669,4.3802,4.3871,4.401,4.4058,4.4023,4.427,4.4342,4.4534,4.4582,4.4635,4.4672,4.4621,4.4835,4.4855,4.4873,4.4939,4.4965,4.4657,4.4656,4.4656,4.4655,0,4.3514,4.3635,4.3729,4.386,4.3941,4.4071,4.4124,4.4202,4.4213,4.4259,4.4421,4.4507,4.4634,4.4682,4.4696,4.4876,4.4853,4.4827,4.4761,4.4902,4.4965,4.499,4.4663,4.4661,4.466,4.4659,0,0,4.3716,4.3864,4.3897,4.3956,4.4074,4.4169,4.4298,4.4421,4.4487,4.4583,4.4691,4.4859,4.4834,4.4907,4.4929,4.5015,4.5164,4.4977,4.498,4.5006,4.5366,4.5383,4.5412,4.516,4.5165,4.5169,4.5356,0,4.3898,4.4125,4.4158,4.4358,4.4469,4.4469,4.4581,4.4666,4.4712,4.4814,4.4866,4.4982,4.4942,4.4985,4.507,4.5128,4.5236,4.5115,4.526,4.5265,4.523,4.5445,4.5464,4.5636,4.5381,4.5385,4.5388,0,4.414,4.424,4.4451,4.4552,4.46,4.47,4.4815,4.4913,4.5009,4.5036,4.5117,4.5128,4.5262,4.5193,4.5377,4.5294,4.5356,4.5393,4.54,4.5413,4.5333,4.5461,4.5692,4.5716,4.5427,4.5424,4.5421,0,4.4262,4.4451,4.46,4.4651,4.4774,4.4844,4.4899,4.499,4.5062,4.5163,4.5209,4.5325,4.5388,4.5478,4.552,4.5466,4.5702,4.5636,4.5727,4.5726,4.5774,4.577,4.6016,4.5819,4.5819,4.5818,4.5818,0,4.446,4.4588,4.4656,4.4748,4.4892,4.493,4.5071,4.5124,4.5205,4.5307,4.5316,4.5411,4.5463,4.5566,4.5601,4.5747,4.5776,4.5802,4.5809,4.5799,4.5795,4.5838,4.5826,4.5825,4.5824,4.5822,4.5821,0,4.462,4.4671,4.4833,4.4936,4.4965,4.5066,4.5153,4.5243,4.5288,4.5417,4.545,4.5521,4.5644,4.5695,4.5847,4.5869,4.6036,4.6036,4.6002,4.6004,4.6091,4.608,4.637,4.6409,4.6189,4.6191,4.6193,0,4.4741,4.4839,4.4952,4.502,4.5076,4.5186,4.5258,4.53,4.5375,4.5491,4.5566,4.5688,4.5788,4.5983,4.6049,4.6164,4.6165,4.6259,4.6183,4.6169,4.6163,4.6155,4.6164,4.6272,4.6274,4.6276,4.6277,0,4.495,4.497,4.5073,4.5185,4.5271,4.5361,4.545,4.5506,4.5561,4.5645,4.5769,4.5846,4.5999,4.612,4.6238,4.6295,4.6295,4.6301,4.6327,4.6317,4.6292,4.6304,4.6037,4.6293,4.6292,4.6291,4.629,4.6289,4.5092,4.5179,4.527,4.5385,4.5455,4.5537,4.5625,4.5681,4.5785,4.5911,4.593,4.6062,4.6156,4.6315,4.6377,4.6481,4.6457,4.6496,4.6506,4.6514,4.6518,4.6278,4.6503,4.6503,4.6502,4.6502,4.6502,0,4.5299,4.5358,4.5462,4.5585,4.5675,4.5666,4.5764,4.5839,4.5955,4.6041,4.6138,4.628,4.6397,4.6472,4.659,4.6659,4.6661,4.6688,4.6682,4.6694,4.6534,4.6497,4.6683,4.6683,4.6683,4.6683,4.6683,4.6683,4.5417,4.5561,4.5592,4.5772,4.583,4.5958,4.6014,4.609,4.6158,4.6316,4.6412,4.646,4.6542,4.6665,4.6772,4.6791,4.6832,4.686,4.6877,4.6725,4.6706,4.6688,4.6654,4.687,4.687,4.7029,4.703,4.7031]},{"header":{"parameterUnit":"m.s-1","parameterCategory":1,"la1":30.2991,"la2":30.254,"lo1":-89.0895,"lo2":-89.0444,"dy":0.0017,"dx":0.0017,"nx":28,"ny":28,"refTime":"2025-03-11T09:00:00:Z","depth":0,"parameterNumber":3,"parameterNumberName":"V-component_of_WINDS"},"data":[0,0,0,0,0,0,0,0,0,0,0,0,0,0,0,0,0,0,0,0,0,0,0,0,0,0,0,0,0,0,0,0,0,0,0,0,0,0,0,0,0,0,0,0,0,0,0,0,0,0,0,0,0,0,0,0,0,0,1.6179,1.6179,0,1.6196,1.6196,1.6196,1.615,1.6149,1.6148,1.6146,1.6166,1.6168,1.6169,0,0,0,0,0,0,0,0,0,0,0,0,0,1.6109,1.611,1.6179,1.6179,1.6179,1.6196,1.6196,1.6196,1.6151,1.6149,1.6147,1.6146,1.6165,1.6167,1.617,0,0,0,0,0,0,0,0,0,0,0,0,0,1.6134,1.6111,1.6179,1.6158,1.6157,1.6196,1.6196,1.6196,1.6151,1.6149,1.6147,1.6145,1.6165,1.6167,1.617,1.623,0,0,1.6178,1.618,0,0,0,0,0,0,0,0,1.6132,1.6136,1.6161,1.616,1.6158,1.6169,1.6178,1.6208,1.6152,1.6153,1.6146,1.6144,1.6169,1.6171,1.6179,1.6231,1.6232,1.6179,1.618,1.6182,1.6182,0,0,0,0,0,0,0,1.6131,1.6135,1.6185,1.6162,1.616,1.6149,1.615,1.6184,1.6173,1.6153,1.615,1.6152,1.6167,1.6176,1.6179,1.6232,1.6179,1.6181,1.6183,1.6184,1.6332,1.6334,0,0,0,0,0,0,1.6131,1.6134,1.6185,1.6186,1.614,1.6152,1.6153,1.6167,1.6172,1.6171,1.6154,1.615,1.6173,1.6176,1.618,1.6249,1.6182,1.6184,1.6186,1.633,1.6333,1.6335,0,0,0,0,0,0,1.613,1.6136,1.6184,1.6159,1.6164,1.6155,1.6172,1.6169,1.6178,1.6173,1.6171,1.6165,1.6171,1.6176,1.6217,1.6249,1.6185,1.6188,1.6327,1.6331,1.6334,1.6389,0,0,0,0,0,0,1.6128,1.6136,1.6159,1.616,1.6166,1.6222,1.6174,1.6171,1.6182,1.6177,1.6183,1.6182,1.617,1.6213,1.622,1.6252,1.619,1.6324,1.6329,1.6333,1.6384,1.6394,1.6402,0,0,0,0,0,1.6126,1.6174,1.616,1.6166,1.6194,1.6223,1.6227,1.6211,1.6185,1.6208,1.6204,1.6182,1.6244,1.6218,1.6225,1.6258,1.6322,1.6327,1.6332,1.638,1.6392,1.6402,0,0,0,0,0,0,1.6179,1.6174,1.6158,1.6209,1.6217,1.6216,1.6244,1.6225,1.6241,1.6236,1.6216,1.6218,1.6263,1.6265,1.6235,1.6315,1.6279,1.6286,1.6313,1.6324,1.6333,1.6331,1.6192,0,0,0,0,0,1.6196,1.6219,1.6215,1.626,1.6264,1.6254,1.6266,1.6253,1.6261,1.6264,1.6264,1.6273,1.6294,1.6309,1.6329,1.6384,1.6384,1.641,1.6419,1.6426,1.6433,1.6461,1.6472,1.6352,1.6352,1.6352,0,0,1.6232,1.6233,1.6249,1.627,1.6275,1.63,1.6257,1.6286,1.6304,1.6269,1.6308,1.6308,1.6316,1.6364,1.6386,1.6367,1.6466,1.6433,1.6439,1.6441,1.6467,1.6479,1.6489,1.6355,1.6355,1.6354,0,0,1.6311,1.6314,1.6351,1.6356,1.6363,1.6355,1.6364,1.6366,1.6364,1.6402,1.6376,1.6398,1.6436,1.6442,1.6451,1.653,1.651,1.6537,1.6584,1.6611,1.6621,1.6629,1.6657,1.6667,1.6543,1.6543,1.6544,0,1.6356,1.6392,1.6373,1.6403,1.6413,1.6381,1.6418,1.6424,1.6438,1.6445,1.6424,1.6469,1.6473,1.6522,1.6541,1.6549,1.6558,1.6537,1.6621,1.6629,1.6637,1.6663,1.6673,1.6547,1.6546,1.6546,1.6546,0,1.6446,1.6472,1.6501,1.6513,1.6526,1.656,1.6546,1.6562,1.6547,1.6542,1.658,1.6583,1.6602,1.6613,1.66,1.6659,1.6647,1.6624,1.6587,1.6652,1.6676,1.6686,1.6551,1.655,1.6549,1.6548,0,0,1.6561,1.656,1.6571,1.6576,1.658,1.66,1.6631,1.6649,1.6662,1.6672,1.6698,1.673,1.6708,1.6717,1.6704,1.6729,1.679,1.6702,1.6702,1.6718,1.6855,1.6873,1.6885,1.6776,1.6778,1.6779,1.6854,0,1.6638,1.6692,1.6675,1.6729,1.6752,1.672,1.6748,1.6754,1.6749,1.6768,1.6763,1.6785,1.6754,1.676,1.6782,1.6778,1.6817,1.6772,1.68,1.6802,1.6799,1.6897,1.6917,1.6987,1.6864,1.6865,1.6866,0,1.6736,1.6748,1.6804,1.6803,1.6812,1.6837,1.6851,1.6869,1.6875,1.6869,1.6879,1.6861,1.6892,1.6854,1.6896,1.6866,1.6876,1.6875,1.6878,1.688,1.6838,1.6902,1.7009,1.702,1.6881,1.688,1.6879,0,1.6813,1.6843,1.688,1.6885,1.6885,1.6903,1.6904,1.6907,1.6918,1.693,1.6937,1.6953,1.6962,1.6975,1.6961,1.6935,1.7005,1.6967,1.7002,1.7002,1.7018,1.7018,1.7129,1.7025,1.7025,1.7025,1.7025,0,1.6901,1.6937,1.6915,1.6938,1.6976,1.6956,1.6995,1.6992,1.6995,1.7017,1.6991,1.7012,1.6993,1.7012,1.7002,1.7038,1.7042,1.7039,1.7035,1.7041,1.7041,1.7048,1.7042,1.7028,1.7027,1.7027,1.7026,0,1.6994,1.6981,1.7019,1.7015,1.7014,1.7043,1.704,1.7061,1.7053,1.7081,1.7086,1.7075,1.7096,1.7083,1.7106,1.7099,1.7145,1.7136,1.7143,1.7141,1.7176,1.7173,1.7295,1.731,1.7197,1.7198,1.7199,0,1.7051,1.7077,1.7075,1.7087,1.709,1.711,1.712,1.7101,1.7113,1.712,1.714,1.7159,1.7173,1.7209,1.7203,1.7219,1.7209,1.7251,1.7212,1.7216,1.7209,1.7208,1.721,1.7259,1.726,1.7261,1.7262,0,1.7154,1.7145,1.7161,1.7174,1.7187,1.7197,1.7204,1.7216,1.7196,1.7211,1.7232,1.7243,1.7264,1.7283,1.7296,1.7298,1.7277,1.7274,1.7283,1.7289,1.7292,1.729,1.7165,1.7272,1.7271,1.727,1.727,1.7269,1.723,1.7251,1.7253,1.7271,1.7274,1.7281,1.73,1.7294,1.7311,1.7326,1.7314,1.7338,1.7342,1.7358,1.7361,1.738,1.7363,1.7376,1.738,1.7383,1.7388,1.7289,1.7383,1.7382,1.7382,1.7382,1.7382,0,1.7331,1.7329,1.7346,1.7357,1.7371,1.7348,1.7355,1.7369,1.739,1.7395,1.7408,1.7432,1.7449,1.7444,1.7459,1.7476,1.7466,1.748,1.7479,1.7479,1.7402,1.7393,1.7487,1.7487,1.7487,1.7487,1.7487,1.7487,1.7385,1.7419,1.7411,1.7446,1.7445,1.7468,1.7474,1.748,1.7483,1.751,1.7524,1.752,1.752,1.7535,1.7551,1.7548,1.7555,1.7573,1.7567,1.7496,1.7485,1.7475,1.7466,1.7575,1.7575,1.7643,1.7643,1.7644]}]]